Weather History for Keahole Point, HI

Change the Weather History Date:

Thursday, September 26, 2013

  Actual Average Record
Temperature  
Mean Temperature 78 °F -  
Max Temperature 84 °F 84 °F 93 °F (1986)
Min Temperature 73 °F 73 °F 70 °F (2004)
Cooling Degree Days 14    
Growing Degree Days 28 (Base 50)    
Moisture  
Dew Point 69 °F    
Average Humidity 72    
Maximum Humidity 87    
Minimum Humidity 53    
Precipitation  
Precipitation 0.00 in - - ()
Sea Level Pressure  
Sea Level Pressure 29.95 in    
Wind  
Wind Speed 8 mph (South)    
Max Wind Speed 17 mph    
Max Gust Speed 22 mph    
Visibility 10 miles    
Events      
Averages and records for this station are not official NWS values.
T = Trace of Precipitation, MM = Missing Value Source: NWS Daily Summary

Daily Weather History Graph

Daily Weather History Graph

Search for Another Location

Airport:

Trip Planner

Search our weather history database for the weather conditions in past years. The results will help you decide how hot, cold, wet, or windy it might be!

Date:

Astronomy

Sep. 26, 2013 Rise Set
Actual Time 6:13 AM HST 6:16 PM HST
Civil Twilight 5:52 AM HST 6:38 PM HST
Nautical Twilight 5:26 AM HST 7:03 PM HST
Astronomical Twilight 5:00 AM HST 7:29 PM HST
Moon No Moon Rise 12:35 PM HST (9/26)
Length of Visible Light 12h 46m
Length of Day
12h 02m
Waning Gibbous, 52% of the Moon is Illuminated
Sep 26
Waning Gibbous
Sep 26
Last Quarter
Oct 4
New
Oct 11
First Quarter
Oct 18
Full

Hourly Weather History & Observations

Time (HST) Temp. Heat Index Dew Point Humidity Pressure Visibility Wind Dir Wind Speed Gust Speed Precip Events Conditions
12:53 AM 73.9 °F - 70.0 °F 87% 29.96 in 10.0 mi ESE 8.1 mph - N/A   Overcast
1:53 AM 75.0 °F - 69.1 °F 82% 29.94 in 10.0 mi South 3.5 mph - N/A   Overcast
2:53 AM 75.0 °F - 70.0 °F 84% 29.94 in 10.0 mi South 9.2 mph - N/A   Overcast
3:53 AM 75.0 °F - 69.1 °F 82% 29.93 in 10.0 mi SE 8.1 mph - N/A   Overcast
4:53 AM 73.9 °F - 69.1 °F 85% 29.93 in 10.0 mi SE 6.9 mph - N/A   Clear
5:53 AM 75.0 °F - 68.0 °F 79% 29.94 in 10.0 mi ENE 3.5 mph - N/A   Mostly Cloudy
6:53 AM 73.9 °F - 66.9 °F 79% 29.96 in 10.0 mi Calm Calm - N/A   Clear
7:53 AM 79.0 °F - 66.9 °F 66% 29.97 in 10.0 mi East 3.5 mph - N/A   Overcast
8:53 AM 80.1 °F 82.7 °F 68.0 °F 67% 29.98 in 10.0 mi SSE 10.4 mph - N/A   Scattered Clouds
9:53 AM 82.0 °F 85.5 °F 69.1 °F 65% 29.98 in 10.0 mi SE 15.0 mph 21.9 mph N/A   Scattered Clouds
10:53 AM 84.9 °F 88.2 °F 68.0 °F 57% 29.97 in 10.0 mi SSE 13.8 mph - N/A   Partly Cloudy
11:53 AM 84.9 °F 87.1 °F 66.0 °F 53% 29.96 in 10.0 mi South 13.8 mph - N/A   Clear
12:53 PM 82.0 °F 85.5 °F 69.1 °F 65% 29.94 in 10.0 mi South 17.3 mph - N/A   Overcast
1:53 PM 82.0 °F 85.9 °F 70.0 °F 67% 29.92 in 10.0 mi South 13.8 mph - N/A   Overcast
2:53 PM 81.0 °F 84.1 °F 69.1 °F 67% 29.93 in 10.0 mi South 10.4 mph - N/A   Overcast
3:53 PM 80.1 °F 82.9 °F 69.1 °F 69% 29.93 in 10.0 mi South 6.9 mph - N/A   Overcast
4:53 PM 80.1 °F 82.9 °F 69.1 °F 69% 29.94 in 10.0 mi WSW 6.9 mph - N/A   Overcast
5:53 PM 80.1 °F 82.9 °F 69.1 °F 69% 29.94 in 10.0 mi WSW 10.4 mph - N/A   Overcast
6:53 PM 80.1 °F 82.9 °F 69.1 °F 69% 29.95 in 10.0 mi West 6.9 mph - N/A   Overcast
7:53 PM 80.1 °F 82.9 °F 69.1 °F 69% 29.97 in 10.0 mi NW 6.9 mph - N/A   Overcast
8:53 PM 80.1 °F 82.9 °F 69.1 °F 69% 29.97 in 10.0 mi NW 5.8 mph - N/A   Overcast
9:53 PM 79.0 °F - 69.1 °F 72% 29.97 in 10.0 mi NW 5.8 mph - N/A   Overcast
10:53 PM 79.0 °F - 69.1 °F 72% 29.96 in 10.0 mi West 4.6 mph - N/A   Scattered Clouds
11:53 PM 78.1 °F - 70.0 °F 76% 29.96 in 10.0 mi WNW 6.9 mph - N/A   Overcast